TimeEDT,TemperatureF,Dew PointF,Humidity,Sea Level PressureIn,VisibilityMPH,Wind Direction,Wind SpeedMPH,Gust SpeedMPH,PrecipitationIn,Events,Conditions,WindDirDegrees,DateUTC
12:53 AM,51.1,45.0,80,30.00,10.0,Calm,Calm,-,N/A,,Clear,0,2013-08-06 04:53:00
1:53 AM,54.0,44.1,69,29.99,10.0,West,6.9,-,N/A,,Clear,260,2013-08-06 05:53:00
2:53 AM,53.1,45.0,74,30.00,10.0,WSW,4.6,-,N/A,,Clear,240,2013-08-06 06:53:00
3:53 AM,53.1,45.0,74,30.01,10.0,West,4.6,-,N/A,,Clear,260,2013-08-06 07:53:00
4:53 AM,53.1,45.0,74,30.01,10.0,West,5.8,-,N/A,,Partly Cloudy,270,2013-08-06 08:53:00
5:53 AM,53.1,46.0,77,30.02,10.0,Calm,Calm,-,N/A,,Scattered Clouds,0,2013-08-06 09:53:00
6:53 AM,55.0,48.0,77,30.05,10.0,SW,3.5,-,N/A,,Scattered Clouds,220,2013-08-06 10:53:00
7:53 AM,60.1,48.9,67,30.08,10.0,WSW,3.5,-,N/A,,Scattered Clouds,250,2013-08-06 11:53:00
8:53 AM,64.9,51.1,61,30.09,10.0,SW,5.8,-,N/A,,Scattered Clouds,230,2013-08-06 12:53:00
9:53 AM,69.1,52.0,54,30.09,10.0,West,5.8,-,N/A,,Partly Cloudy,270,2013-08-06 13:53:00
10:53 AM,72.0,51.1,48,30.09,10.0,West,4.6,-,N/A,,Scattered Clouds,260,2013-08-06 14:53:00
11:53 AM,75.0,52.0,44,30.09,10.0,NW,9.2,16.1,N/A,,Scattered Clouds,310,2013-08-06 15:53:00
12:53 PM,75.9,53.1,45,30.08,10.0,Calm,Calm,-,N/A,,Scattered Clouds,0,2013-08-06 16:53:00
1:53 PM,78.1,53.1,42,30.07,9.0,West,6.9,-,N/A,,Scattered Clouds,280,2013-08-06 17:53:00
2:53 PM,78.1,54.0,43,30.07,10.0,West,9.2,-,N/A,,Mostly Cloudy,270,2013-08-06 18:53:00
3:53 PM,78.1,54.0,43,30.08,10.0,SSW,6.9,-,N/A,,Scattered Clouds,200,2013-08-06 19:53:00
4:53 PM,77.0,55.0,47,30.08,10.0,SSW,8.1,-,N/A,,Mostly Cloudy,200,2013-08-06 20:53:00
5:53 PM,75.0,55.9,51,30.08,10.0,South,9.2,-,N/A,,Scattered Clouds,190,2013-08-06 21:53:00
6:53 PM,72.0,55.0,55,30.09,10.0,South,8.1,-,N/A,,Scattered Clouds,170,2013-08-06 22:53:00
7:53 PM,69.1,55.0,61,30.11,10.0,South,5.8,-,N/A,,Scattered Clouds,180,2013-08-06 23:53:00
8:53 PM,66.9,54.0,63,30.14,10.0,SSW,4.6,-,N/A,,Partly Cloudy,210,2013-08-07 00:53:00
9:53 PM,64.9,51.1,61,30.14,10.0,SSW,4.6,-,N/A,,Clear,200,2013-08-07 01:53:00
10:53 PM,61.0,50.0,67,30.14,10.0,South,5.8,-,N/A,,Clear,170,2013-08-07 02:53:00
11:53 PM,59.0,51.1,75,30.14,10.0,South,3.5,-,N/A,,Clear,190,2013-08-07 03:53:00